Medemborg — PJAG — position and weather

sailwx.info

Track history (hours):
 
Tides and Currents Weather Stations Pressure Air Temp Water Temp Dewpoint Dewpoint Depression Visibility Wind Speed Wind Dir Waves Ship Positions

Medemborg

Last reported at 2014-Oct-25 14:21 UTC. Time now 2014-Oct-25 16:02 UTC.
Position N 63°47' E 011°24'.

Length 135 m; draft 5.2 m.

Type: Cargo ship. MMSI: 306581000.

Date/timePositionNaut miles runAvg speedWind from/ knotsBaromVisibWave heightAir tempDewpointWater temp
2014-Oct-25 14:21N 63°47' E 011°24'7 8.3
2014-Oct-25 13:33N 63°46' E 011°10'1313.3
2014-Oct-25 12:33N 63°39' E 010°43'1413.5
2014-Oct-25 11:33N 63°32' E 010°18'1111.2
2014-Oct-25 10:33N 63°31' E 009°53'1110.1
2014-Oct-25 09:30N 63°37' E 009°32'  
2014-Oct-22 05:30N 54°52' E 006°07'1 1.2
2014-Oct-22 04:33N 54°52' E 006°09'2 1.7
2014-Oct-22 03:34N 54°52' E 006°12'2 1.6
2014-Oct-22 02:33N 54°52' E 006°15'2 1.6
2014-Oct-22 01:32N 54°52' E 006°18'22910.0
2014-Oct-21 02:29N 51°45' E 002°36'1314.3
2014-Oct-21 01:33N 51°34' E 002°22'1414.5
2014-Oct-21 00:33N 51°22' E 002°10'1514.6
2014-Oct-20 23:34N 51°11' E 001°55'9 8.7
2014-Oct-20 22:34N 51°03' E 001°50'10 9.6
2014-Oct-20 21:33N 51°03' E 002°05'10 9.8
2014-Oct-20 20:33N 51°03' E 002°21'2 2.2
2014-Oct-20 19:34N 51°03' E 002°17'0 0.2
2014-Oct-20 18:28N 51°03' E 002°17'0 0.0
2014-Oct-20 17:31N 51°03' E 002°17'0 0.0
2014-Oct-20 16:31N 51°03' E 002°17'0 0.0
2014-Oct-20 15:31N 51°03' E 002°17'0 0.0
2014-Oct-20 14:31N 51°03' E 002°17'0 0.0
2014-Oct-20 13:31N 51°03' E 002°17'0 0.0
2014-Oct-20 12:31N 51°03' E 002°17'0 0.0
2014-Oct-20 11:19N 51°03' E 002°17'0 0.0
2014-Oct-20 10:31N 51°03' E 002°17'0 0.0
2014-Oct-20 09:31N 51°03' E 002°17'0 0.0
2014-Oct-20 08:31N 51°03' E 002°17'0 0.0
2014-Oct-20 07:31N 51°03' E 002°17'0 0.0
2014-Oct-20 06:31N 51°03' E 002°17'0 0.0
2014-Oct-20 05:28N 51°03' E 002°17'0 0.0
2014-Oct-20 04:19N 51°03' E 002°17'0 0.0
2014-Oct-20 03:31N 51°03' E 002°17'0 0.0
2014-Oct-20 02:31N 51°03' E 002°17'0 0.0
2014-Oct-20 01:28N 51°03' E 002°17'0 0.0
2014-Oct-20 00:28N 51°03' E 002°17'0 0.0
2014-Oct-19 23:28N 51°03' E 002°17'0 0.0
2014-Oct-19 22:28N 51°03' E 002°17'0 0.0
2014-Oct-19 21:31N 51°03' E 002°17'0 0.0
2014-Oct-19 20:31N 51°03' E 002°17'0 0.0
2014-Oct-19 19:28N 51°03' E 002°17'0 0.0
2014-Oct-19 18:31N 51°03' E 002°17'0 0.0
2014-Oct-19 17:31N 51°03' E 002°17'0 0.0
2014-Oct-19 16:31N 51°03' E 002°17'0 0.0
2014-Oct-19 15:31N 51°03' E 002°17'0 0.0
2014-Oct-19 14:31N 51°03' E 002°17'0 0.0
2014-Oct-19 13:31N 51°03' E 002°17'0 0.0
2014-Oct-19 12:31N 51°03' E 002°17'0 0.0
2014-Oct-19 11:28N 51°03' E 002°17'0 0.0
2014-Oct-19 10:22N 51°03' E 002°17'0 0.0
2014-Oct-19 09:25N 51°03' E 002°17'2 1.8
2014-Oct-19 08:33N 51°03' E 002°20'4 4.0
2014-Oct-19 07:33N 51°04' E 002°13'1313.5
2014-Oct-19 06:34N 51°03' E 001°52'8 8.1
2014-Oct-19 05:34N 51°01' E 001°40'9 8.7
2014-Oct-19 04:34N 50°54' E 001°30'9 9.1
2014-Oct-19 03:34N 50°46' E 001°25'  
2014-Oct-15 15:32N 38°02' W 009°38'1212.1
2014-Oct-15 14:34N 37°51' W 009°35'  
Track history (hours):
 
Tides and Currents Weather Stations Pressure Air Temp Water Temp Dewpoint Dewpoint Depression Visibility Wind Speed Wind Dir Waves Ship Positions

Medemborg

Last reported at 2014-Oct-25 14:21 UTC. Time now 2014-Oct-25 16:02 UTC.
Position N 63°47' E 011°24'.

Length 135 m; draft 5.2 m.

Type: Cargo ship. MMSI: 306581000.

Date/timePositionNaut miles runAvg speedWind from/ knotsBaromVisibWave heightAir tempDewpointWater temp
2014-Oct-25 14:21N 63°47' E 011°24'7 8.3
2014-Oct-25 13:33N 63°46' E 011°10'1313.3
2014-Oct-25 12:33N 63°39' E 010°43'1413.5
2014-Oct-25 11:33N 63°32' E 010°18'1111.2
2014-Oct-25 10:33N 63°31' E 009°53'1110.1
2014-Oct-25 09:30N 63°37' E 009°32'  
2014-Oct-22 05:30N 54°52' E 006°07'1 1.2
2014-Oct-22 04:33N 54°52' E 006°09'2 1.7
2014-Oct-22 03:34N 54°52' E 006°12'2 1.6
2014-Oct-22 02:33N 54°52' E 006°15'2 1.6
2014-Oct-22 01:32N 54°52' E 006°18'22910.0
2014-Oct-21 02:29N 51°45' E 002°36'1314.3
2014-Oct-21 01:33N 51°34' E 002°22'1414.5
2014-Oct-21 00:33N 51°22' E 002°10'1514.6
2014-Oct-20 23:34N 51°11' E 001°55'9 8.7
2014-Oct-20 22:34N 51°03' E 001°50'10 9.6
2014-Oct-20 21:33N 51°03' E 002°05'10 9.8
2014-Oct-20 20:33N 51°03' E 002°21'2 2.2
2014-Oct-20 19:34N 51°03' E 002°17'0 0.2
2014-Oct-20 18:28N 51°03' E 002°17'0 0.0
2014-Oct-20 17:31N 51°03' E 002°17'0 0.0
2014-Oct-20 16:31N 51°03' E 002°17'0 0.0
2014-Oct-20 15:31N 51°03' E 002°17'0 0.0
2014-Oct-20 14:31N 51°03' E 002°17'0 0.0
2014-Oct-20 13:31N 51°03' E 002°17'0 0.0
2014-Oct-20 12:31N 51°03' E 002°17'0 0.0
2014-Oct-20 11:19N 51°03' E 002°17'0 0.0
2014-Oct-20 10:31N 51°03' E 002°17'0 0.0
2014-Oct-20 09:31N 51°03' E 002°17'0 0.0
2014-Oct-20 08:31N 51°03' E 002°17'0 0.0
2014-Oct-20 07:31N 51°03' E 002°17'0 0.0
2014-Oct-20 06:31N 51°03' E 002°17'0 0.0
2014-Oct-20 05:28N 51°03' E 002°17'0 0.0
2014-Oct-20 04:19N 51°03' E 002°17'0 0.0
2014-Oct-20 03:31N 51°03' E 002°17'0 0.0
2014-Oct-20 02:31N 51°03' E 002°17'0 0.0
2014-Oct-20 01:28N 51°03' E 002°17'0 0.0
2014-Oct-20 00:28N 51°03' E 002°17'0 0.0
2014-Oct-19 23:28N 51°03' E 002°17'0 0.0
2014-Oct-19 22:28N 51°03' E 002°17'0 0.0
2014-Oct-19 21:31N 51°03' E 002°17'0 0.0
2014-Oct-19 20:31N 51°03' E 002°17'0 0.0
2014-Oct-19 19:28N 51°03' E 002°17'0 0.0
2014-Oct-19 18:31N 51°03' E 002°17'0 0.0
2014-Oct-19 17:31N 51°03' E 002°17'0 0.0
2014-Oct-19 16:31N 51°03' E 002°17'0 0.0
2014-Oct-19 15:31N 51°03' E 002°17'0 0.0
2014-Oct-19 14:31N 51°03' E 002°17'0 0.0
2014-Oct-19 13:31N 51°03' E 002°17'0 0.0
2014-Oct-19 12:31N 51°03' E 002°17'0 0.0
2014-Oct-19 11:28N 51°03' E 002°17'0 0.0
2014-Oct-19 10:22N 51°03' E 002°17'0 0.0
2014-Oct-19 09:25N 51°03' E 002°17'2 1.8
2014-Oct-19 08:33N 51°03' E 002°20'4 4.0
2014-Oct-19 07:33N 51°04' E 002°13'1313.5
2014-Oct-19 06:34N 51°03' E 001°52'8 8.1
2014-Oct-19 05:34N 51°01' E 001°40'9 8.7
2014-Oct-19 04:34N 50°54' E 001°30'9 9.1
2014-Oct-19 03:34N 50°46' E 001°25'  
2014-Oct-15 15:32N 38°02' W 009°38'1212.1
2014-Oct-15 14:34N 37°51' W 009°35'  

Dump ship's entire track history